Ana Sayfa
METAR-TAF:

METAR-TAF

Havaalanları :

Afyon Havalimanı

Afyon, Türkiye

Enlem: 38-45N, Boylam: 030-32E, yükseklik: 1034 m

METAR: eksik

Saat: 20:55 (17:55 UTC)

Tahmin

Rapor saat 13:40 UTC de 4 saat ve 15 dakika önce yapıldı.
Ayın 18'si saat 15 UTC'den ayın 18'si saat 24 UTC'ye kadar geçerli Tahmin
Rüzgar kuzeydan 8 kt
Görüş mesafesi 10 km veya daha fazla
4000 ft yükseklikte parçalı bulutlu
Dönüşüyor
ayın 18'si saat 15 UTC'den ayın 18'si saat 18 UTC'ye kadar
Görüş mesafesi 10 km veya daha fazla
1500 m altında bulut yok ve kümülonimbus yok

TAF: LTAH 181340Z 1815/1824 36008KT 9999 SCT040 BECMG 1815/1818 CAVOK

4.000'den fazla havaalanı için hava durumu gözlemleri ve tahminleri (METAR ve TAF raporları).

Kullanılabilir istasyonlar harita üzerinde sarı ve kırmızı noktalarla gösterilir.

İstasyonun adını görmek için fareyi noktanın üzerinde gezdirin.

Sonrasında hava gözlem ve tahminlerini görmek için tıklayın.

Haritayı değiştirmek için: yaklaştırmak için siyah artı işaretli yeşil düğmeye ve uzaklaştırmak için de eksi işaretli düğmeye hızla tıklayın; bitişik haritalar için yeşil okları kullanın.


METAR-TAF: